DLH241 EGKK-EDDF

Flight info

Callsign DLH241
Flight time N/A
Altitude 35000
Route DVR UL9 KONAN UL607 KOK DCT REMBA UL607 SPI T180 NIVNU/N0353F230 T847 IMCOM IMCOM1B
Aircraft A20N/M-SDE2E3FGHIRWXY/LB1

Departure

Time 2026-05-04 11:13
Airport London Gatwick Airport (EGKK)

Arrival

Time N/A
Airport Frankfurt Main Airport (EDDF)
Time Latitude Longitude Altitude Speed Heading
2026-05-04 10:21 51.15486 -0.16959 205 ft 0 kts 348°
2026-05-04 10:46 51.15482 -0.16957 204 ft 1 kts 348°
2026-05-04 10:46 51.15475 -0.16955 213 ft 1 kts 348°
2026-05-04 10:46 51.15467 -0.16952 210 ft 1 kts 348°
2026-05-04 10:46 51.15459 -0.16950 206 ft 1 kts 348°
2026-05-04 10:47 51.15452 -0.16948 206 ft 1 kts 348°
2026-05-04 10:47 51.15444 -0.16945 213 ft 1 kts 348°
2026-05-04 10:47 51.15436 -0.16943 209 ft 1 kts 348°
2026-05-04 10:47 51.15429 -0.16939 212 ft 1 kts 317°
2026-05-04 10:49 51.15423 -0.16928 210 ft 0 kts 274°
2026-05-04 10:51 51.15370 -0.17256 210 ft 7 kts 250°
2026-05-04 10:52 51.15336 -0.17345 204 ft 12 kts 227°
2026-05-04 10:52 51.15292 -0.17469 204 ft 15 kts 259°
2026-05-04 10:52 51.15269 -0.17644 210 ft 18 kts 258°
2026-05-04 10:54 51.15109 -0.18846 210 ft 18 kts 257°
2026-05-04 10:54 51.15081 -0.19051 208 ft 20 kts 258°
2026-05-04 10:56 51.14905 -0.20380 203 ft 19 kts 259°
2026-05-04 10:56 51.14892 -0.20438 210 ft 11 kts 254°
2026-05-04 10:56 51.14869 -0.20597 208 ft 17 kts 257°
2026-05-04 10:57 51.14846 -0.20765 203 ft 13 kts 258°
2026-05-04 10:57 51.14824 -0.20927 213 ft 16 kts 257°
2026-05-04 10:57 51.14795 -0.21111 213 ft 17 kts 252°
2026-05-04 10:57 51.14761 -0.21306 204 ft 20 kts 255°
2026-05-04 10:58 51.14752 -0.21355 208 ft 5 kts 250°
2026-05-04 10:58 51.14710 -0.21392 209 ft 9 kts 174°
2026-05-04 10:58 51.14641 -0.21338 211 ft 13 kts 153°
2026-05-04 10:58 51.14592 -0.21308 211 ft 0 kts 158°
2026-05-04 10:59 51.14567 -0.21291 213 ft 8 kts 152°
2026-05-04 10:59 51.14519 -0.21178 204 ft 16 kts 94°
2026-05-04 10:59 51.14536 -0.21001 210 ft 17 kts 78°
2026-05-04 10:59 51.14564 -0.20807 205 ft 18 kts 77°
2026-05-04 11:00 51.14592 -0.20603 209 ft 20 kts 78°
2026-05-04 11:01 51.14631 -0.20324 210 ft 1 kts 77°
2026-05-04 11:02 51.14636 -0.20291 206 ft 6 kts 75°
2026-05-04 11:02 51.14657 -0.20166 212 ft 15 kts 76°
2026-05-04 11:05 51.14801 -0.20412 206 ft 14 kts 257°
2026-05-04 11:06 51.14778 -0.20576 207 ft 17 kts 257°
2026-05-04 11:06 51.14751 -0.20773 211 ft 20 kts 259°
2026-05-04 11:06 51.14724 -0.20994 214 ft 21 kts 259°
2026-05-04 11:06 51.14698 -0.21172 210 ft 7 kts 257°
2026-05-04 11:08 51.14690 -0.21225 204 ft 0 kts 257°
2026-05-04 11:10 51.14608 -0.21314 209 ft 0 kts 167°
2026-05-04 11:12 51.14596 -0.20573 207 ft 7 kts 78°
2026-05-04 11:12 51.14596 -0.20571 207 ft 0 kts 78°
2026-05-04 11:12 51.14597 -0.20567 206 ft 3 kts 78°
2026-05-04 11:12 51.14649 -0.20209 209 ft 67 kts 77°
2026-05-04 11:13 51.14796 -0.19159 209 ft 124 kts 78°
2026-05-04 11:13 51.15012 -0.17583 270 ft 160 kts 76°
2026-05-04 11:13 51.15244 -0.15863 876 ft 159 kts 76°
2026-05-04 11:13 51.15519 -0.14035 1274 ft 183 kts 76°
2026-05-04 11:14 51.15618 -0.13376 1384 ft 191 kts 77°
2026-05-04 11:14 51.16269 -0.08789 2013 ft 233 kts 78°
2026-05-04 11:16 51.16945 0.13884 7983 ft 287 kts 92°
2026-05-04 11:16 51.16939 0.17085 8900 ft 294 kts 92°
2026-05-04 11:16 51.16930 0.20354 9076 ft 293 kts 92°
2026-05-04 11:17 51.16923 0.23601 9231 ft 294 kts 92°
2026-05-04 11:17 51.16919 0.26862 9357 ft 295 kts 92°
2026-05-04 11:19 51.16865 0.51503 12595 ft 353 kts 92°
2026-05-04 11:19 51.16852 0.55448 13432 ft 358 kts 92°
2026-05-04 11:19 51.16837 0.59446 14219 ft 363 kts 92°